Temperature
14 15 15 15 15 15 15 15 15 15 15 15 15 15 14 14 14 14 13 13 13 13 13 13 12 13 12 12 12 12 12 12 11 11 11 11 11 11 10 10 10 10 10
14 14 15 15 15 15 15 15 15 15 15 15 15 15 14 14 14 13 13 13 13 13 13 13 12 13 13 12 12 12 12 12 11 11 11 11 11 11 10 10 10 10 10
14 14 14 14 15 15 15 15 15 15 15 15 15 14 14 14 14 13 13 13 13 13 13 13 13 13 13 12 12 12 12 12 11 11 11 11 11 10 10 10 10 10 10
14 14 14 14 14 14 14 14 14 14 14 14 14 14 14 14 13 13 13 13 13 13 13 13 13 13 13 12 12 12 12 11 11 11 11 10 10 10 10 10 10 10 10
13 13 14 14 14 14 14 14 14 14 14 14 14 14 14 13 13 13 13 13 13 13 13 13 13 13 12 12 12 12 12 11 11 11 11 10 10 10 10 9 9 9 9
13 13 13 13 13 13 13 14 14 14 14 14 14 13 13 13 13 13 13 13 13 13 13 13 13 12 12 12 12 12 11 11 11 11 10 10 10 9 9 9 9 9 9
12 13 13 13 13 13 13 14 14 14 13 13 13 13 13 13 13 13 13 13 13 13 13 13 13 12 12 12 12 11 11 11 11 10 10 10 9 9 9 9 9 9 9
12 12 12 12 13 12 12 13 13 13 13 13 13 12 12 12 13 13 13 13 13 13 13 13 12 12 12 12 11 11 11 11 10 10 10 9 9 9 9 8 8 8 8
12 12 12 12 12 12 12 12 12 13 13 13 12 12 12 12 13 13 13 13 13 13 12 12 12 12 12 12 11 11 11 10 10 10 9 9 8 8 8 8 8 8 8
12 12 12 12 12 12 12 12 12 12 13 13 12 12 13 13 13 12 12 13 13 12 12 12 12 12 11 11 11 11 10 10 10 9 9 9 8 8 8 8 8 8 7
11 11 11 11 11 12 12 12 12 12 12 12 12 12 12 12 12 12 12 12 12 12 12 12 12 11 11 11 11 10 10 10 9 9 9 8 8 8 8 8 7 7 7
11 11 11 11 11 11 11 12 12 12 12 12 12 12 12 12 12 12 12 12 12 12 12 11 11 11 11 11 10 10 9 9 9 8 8 8 8 7 7 7 7 7 7
10 11 11 11 11 11 11 11 11 11 11 11 12 12 12 12 12 12 12 12 11 11 11 11 11 11 11 10 10 9 9 9 8 8 8 7 7 7 7 7 7 7 7
10 10 10 10 10 10 10 11 11 11 11 11 11 11 11 11 11 11 11 11 11 10 10 10 10 10 10 10 10 9 9 8 8 8 7 7 7 7 6 6 6 6 6
9 10 10 10 10 10 10 10 10 10 10 10 11 11 11 11 11 11 10 11 10 10 9 10 10 10 10 9 9 9 8 8 8 7 7 7 6 6 6 6 6 6 6
9 9 9 9 9 9 9 9 9 10 10 10 10 10 10 10 10 10 10 10 10 10 10 10 10 10 9 9 9 8 8 7 7 7 6 6 6 6 5 5 5 5 5
8 8 8 8 9 9 9 9 9 9 9 9 9 9 9 9 9 9 9 9 9 9 9 9 9 9 8 8 8 7 7 7 6 6 6 5 5 5 5 5 5 5 5
7 7 8 8 8 8 8 8 8 8 8 8 9 9 9 9 9 9 9 8 8 8 8 8 8 8 8 8 7 7 6 6 6 5 5 5 5 4 4 4 4 4 4
6 7 7 7 7 7 7 7 8 8 8 8 8 8 8 8 8 8 8 8 8 8 8 8 8 8 7 7 6 6 6 5 5 5 4 4 4 4 3 3 3 4 4
5 6 6 6 6 6 6 6 7 7 7 7 7 7 7 7 7 7 7 7 7 7 7 7 7 7 6 6 6 5 5 5 4 4 4 4 3 3 3 3 3 3 3
4 4 4 5 5 5 5 5 5 6 6 6 6 6 6 6 6 6 6 6 6 6 6 6 6 6 5 5 5 5 5 4 4 3 3 3 3 2 2 2 3 3 3
3 3 4 4 4 4 4 4 4 4 5 5 5 5 5 5 5 5 5 6 5 5 5 5 5 5 6 6 5 5 4 3 3 3 3 3 2 2 2 2 2 2 3
3 3 3 3 3 3 3 3 3 3 3 3 4 4 4 4 4 4 5 5 5 5 5 5 5 5 5 5 5 4 4 3 3 3 3 2 2 2 2 2 2 2 2
1 1 1 1 2 2 2 2 2 2 2 2 2 3 3 3 3 3 3 3 4 4 4 4 4 4 4 4 4 4 4 3 2 2 2 2 2 1 1 1 1 1 2
-0 -0 -0 0 0 0 0 1 1 1 1 1 1 2 2 2 2 2 2 2 2 3 3 3 3 3 3 3 3 3 3 2 2 2 2 1 1 1 1 1 1 1 1
-1 -1 -1 -1 -1 -1 -1 -1 -1 -1 -1 -0 0 0 1 1 1 1 1 1 1 2 2 2 2 3 3 2 2 3 3 2 2 1 1 1 1 0 0 0 1 1 1
Wind_Speed
9 8 7 9 10 11 10 7 7 7 6 6 6 6 6 7 8 9 10 12 12 11 10 9 9 8 8 7 6 6 5 6 5 4 3 2 2 1 1 2 3 4 4
8 8 8 8 9 11 10 8 7 6 4 4 4 6 6 7 8 9 10 11 12 12 11 10 9 8 7 7 6 6 6 6 5 4 3 2 2 2 2 2 3 4 4
11 9 9 9 8 11 10 7 6 5 4 4 4 4 5 6 7 9 10 10 11 11 12 11 10 9 7 6 6 6 6 5 4 3 3 2 2 1 2 2 3 4 4
13 9 9 9 10 10 8 6 5 5 5 4 4 4 3 4 6 8 9 10 10 10 10 11 11 9 8 7 6 6 6 5 4 3 2 2 1 1 1 2 3 3 3
14 10 9 8 10 8 7 8 6 5 5 5 4 3 3 4 4 6 6 8 10 10 10 10 10 9 9 7 7 6 6 6 5 4 3 3 2 1 1 2 3 3 4
13 11 8 8 9 8 8 8 7 5 4 5 3 2 2 3 3 4 5 6 8 10 10 9 8 8 9 9 8 7 7 7 6 5 5 4 3 2 1 1 3 4 4
12 10 9 9 10 10 10 10 7 6 5 4 3 1 1 2 3 4 3 4 5 8 9 10 9 9 8 9 9 8 8 8 7 6 6 5 3 2 0 1 3 4 5
11 10 11 10 11 10 10 10 7 5 4 6 4 3 2 2 3 3 3 5 5 5 6 9 10 10 10 9 9 9 8 8 7 7 6 6 4 2 0 2 3 4 5
10 10 11 11 11 11 10 11 10 9 6 6 5 5 4 5 3 2 3 4 5 5 5 7 9 11 12 11 10 10 9 9 8 8 8 7 5 3 1 2 3 5 6
9 9 10 11 10 10 10 10 10 7 7 7 5 4 3 4 4 2 2 3 4 5 6 5 7 10 12 12 11 11 11 10 9 8 8 6 5 3 1 2 3 5 6
7 8 9 10 10 10 10 10 9 9 7 7 6 4 3 2 3 3 3 3 3 4 5 5 5 7 11 11 11 11 11 10 9 9 8 6 5 3 2 2 3 4 5
5 6 8 8 9 9 9 9 10 10 9 8 6 5 5 4 4 4 4 4 4 3 4 5 5 7 9 11 12 12 12 10 9 7 6 5 3 2 1 2 3 4 5
2 4 5 6 7 8 9 9 10 10 10 9 9 7 6 5 4 4 4 3 4 3 3 4 5 7 9 11 11 12 11 10 9 7 6 5 4 3 1 1 3 3 5
1 1 3 5 6 6 6 7 7 8 8 9 9 8 6 6 5 5 4 4 4 4 4 5 3 6 9 11 12 13 11 11 9 8 7 6 5 4 2 0 1 3 4
3 2 1 2 3 4 5 5 5 6 6 7 7 7 6 5 6 5 5 5 6 6 7 7 6 5 8 10 13 13 12 12 11 9 8 7 6 4 3 1 0 2 4
6 5 4 2 1 2 3 3 4 4 6 6 5 7 7 5 5 5 6 6 6 6 6 5 5 4 7 8 13 13 13 13 12 11 10 9 7 5 4 2 1 2 4
10 8 6 5 3 1 1 2 2 3 5 6 6 7 8 6 6 6 6 6 6 6 6 3 2 3 6 8 8 10 11 11 10 11 10 9 8 7 5 3 2 2 4
11 10 9 8 7 5 2 1 3 3 5 6 7 7 8 6 8 7 7 8 7 6 5 5 4 5 5 8 8 7 7 9 9 10 10 9 8 7 6 4 2 2 3
11 11 10 10 9 9 6 3 3 4 5 6 6 7 8 8 9 7 8 8 7 6 5 5 5 4 3 5 6 5 5 4 7 9 9 9 9 8 6 5 3 2 2
10 10 10 9 9 8 8 7 5 4 5 5 5 6 7 8 9 9 8 9 7 7 6 6 5 5 4 5 6 6 5 4 4 5 8 8 8 7 7 6 4 2 2
10 9 9 9 8 7 8 9 8 6 6 6 6 6 6 7 9 8 7 8 8 7 7 7 6 5 6 7 8 6 6 5 3 4 4 4 4 4 4 5 4 3 2
8 8 9 9 9 8 13 14 11 7 6 6 6 5 5 6 7 9 10 10 11 10 10 8 7 9 9 8 7 7 6 5 5 5 5 4 4 4 4 5 5 4 3
8 8 8 8 9 11 16 16 15 9 7 6 6 6 5 5 6 5 7 9 10 12 12 10 10 10 9 11 10 9 8 6 5 6 5 4 4 4 4 6 7 6 4
7 7 8 8 8 11 16 17 16 9 6 6 6 6 6 6 5 5 5 6 6 8 9 8 9 9 9 11 13 11 9 6 3 3 5 4 4 4 3 4 7 7 5
6 6 7 7 8 11 16 17 15 7 6 7 6 6 7 6 9 9 6 6 6 6 7 9 9 9 12 14 13 9 8 7 4 4 4 4 4 3 2 2 4 6 6
7 7 8 7 8 9 14 17 15 6 7 7 6 6 9 10 11 11 7 6 8 7 5 4 6 8 9 13 18 13 11 8 4 5 6 6 5 4 3 2 1 3 4
Wind_Direction
179 176 174 176 179 179 180 179 178 178 180 183 186 189 199 210 215 219 226 229 229 230 229 227 222 222 224 224 218 201 195 188 186 188 194 206 223 256 303 332 339 339 341
181 181 178 181 184 184 185 185 183 181 185 186 196 201 208 215 221 224 227 229 229 230 232 235 234 231 228 225 215 199 196 192 194 202 208 213 236 253 271 302 310 320 323
186 185 185 187 188 185 182 179 179 177 187 196 213 216 213 218 220 221 221 222 225 229 231 232 233 230 224 214 204 191 184 181 187 191 203 214 224 260 277 298 312 310 310
190 188 190 191 184 181 182 182 181 186 199 201 208 217 213 213 217 217 214 216 217 221 227 228 226 223 218 207 202 192 185 178 173 177 182 183 193 210 350 331 328 322 313
194 193 194 189 180 182 187 192 188 186 194 200 205 214 218 215 214 209 207 211 211 213 216 218 217 215 207 203 199 194 186 178 176 173 166 152 146 137 82 11 351 334 328
199 197 195 186 184 188 193 192 187 188 190 183 188 204 222 223 213 210 209 206 207 208 206 203 201 200 200 197 195 194 188 185 181 175 166 155 150 139 105 355 342 336 324
203 200 200 190 190 196 199 194 186 187 191 158 143 191 284 241 224 222 207 198 204 204 197 194 192 188 190 192 194 195 189 185 184 182 176 168 164 158 119 351 339 342 340
206 203 200 197 194 197 197 194 183 183 185 172 160 149 216 266 244 218 204 204 204 193 192 194 190 188 185 181 185 187 186 188 190 190 186 181 175 167 254 342 346 352 350
207 205 202 199 198 195 198 197 194 187 188 192 185 166 175 213 223 231 218 210 202 201 201 189 189 189 185 182 181 184 186 191 199 201 198 191 191 193 160 358 349 345 343
203 205 203 199 198 198 197 197 197 197 185 192 204 212 197 160 172 209 242 217 206 209 205 199 192 191 188 185 186 187 188 190 199 205 203 202 205 205 239 320 329 331 332
203 202 201 200 198 199 199 197 195 198 198 196 193 187 191 187 177 178 218 220 220 218 206 205 198 194 193 191 189 189 189 190 198 204 205 207 210 214 238 303 317 328 332
209 204 202 202 201 199 198 199 200 202 206 203 200 194 186 185 194 188 209 213 218 219 202 201 203 199 193 193 191 189 189 190 192 198 201 204 195 185 255 315 320 329 332
223 212 205 204 204 205 200 196 201 205 206 206 208 211 211 211 187 184 194 209 216 218 206 213 210 199 191 189 190 188 188 186 188 196 200 188 166 157 141 333 326 335 334
260 244 219 210 205 202 198 197 206 209 207 212 215 213 217 215 203 197 188 187 210 216 216 221 199 201 192 187 189 183 181 182 183 190 188 171 159 151 152 231 334 338 333
12 7 328 214 198 196 195 194 210 213 211 215 217 217 222 219 212 211 202 198 202 217 224 209 202 196 190 186 184 179 177 177 175 173 169 163 159 161 172 185 358 334 332
16 20 20 5 202 187 192 201 215 217 216 221 218 220 224 221 216 216 215 214 213 217 226 200 196 177 181 184 186 179 178 177 176 173 170 170 170 174 179 188 217 304 321
23 19 13 13 5 334 226 221 238 238 231 229 222 223 228 223 221 222 220 217 216 211 226 203 177 167 175 179 176 174 175 174 177 180 182 183 181 181 187 200 232 289 319
22 19 18 17 15 7 352 273 251 247 244 243 237 232 234 228 227 224 222 222 219 210 209 208 189 180 186 183 174 170 171 175 178 185 188 193 191 189 193 204 228 274 315
20 18 18 16 10 5 357 337 301 275 257 251 248 243 240 230 232 231 226 224 221 213 205 201 191 177 170 168 164 165 166 166 177 187 193 201 200 197 196 203 218 257 302
17 13 11 9 4 359 359 353 334 310 291 278 264 254 247 238 237 233 228 225 217 210 202 196 188 173 169 167 166 172 178 182 184 179 192 198 199 197 200 207 213 234 285
11 5 3 0 357 355 355 351 343 324 304 294 282 267 259 256 252 245 235 222 212 212 205 201 194 185 184 178 187 175 184 172 182 183 175 187 180 177 191 210 211 212 242
1 1 360 354 351 349 344 344 340 327 316 300 291 285 274 259 261 260 254 237 221 214 211 210 210 203 202 192 179 176 169 172 201 190 177 193 173 188 188 201 207 207 218
351 350 347 346 340 336 340 338 334 326 311 302 295 290 288 276 270 255 258 252 240 230 220 215 213 209 199 192 181 182 184 183 190 172 164 185 176 193 192 206 209 206 209
337 333 331 330 327 328 334 334 330 322 307 299 292 287 284 280 266 258 249 249 247 240 231 225 223 214 202 189 188 188 184 164 114 146 161 175 176 187 178 201 211 205 201
320 317 315 317 317 317 326 328 327 313 305 300 294 289 286 279 276 270 254 247 254 258 250 230 225 218 202 192 182 166 163 170 180 186 181 163 162 156 162 194 213 207 195
309 311 309 307 305 305 317 322 323 312 306 302 296 287 286 286 284 275 260 244 245 249 231 223 219 215 206 198 190 185 178 176 160 181 184 164 154 149 172 197 187 188 183
Height
1505 1508 1511 1514 1517 1520 1523 1526 1529 1532 1534 1536 1538 1539 1541 1542 1544 1545 1546 1546 1547 1547 1548 1548 1548 1548 1547 1548 1547 1547 1547 1547 1547 1547 1546 1545 1545 1544 1543 1543 1542 1542 1541
1501 1504 1507 1510 1514 1517 1521 1524 1526 1529 1531 1533 1535 1537 1538 1540 1541 1543 1544 1544 1545 1545 1546 1546 1546 1546 1546 1546 1546 1546 1546 1546 1545 1545 1545 1544 1543 1542 1542 1541 1541 1540 1540
1498 1501 1504 1506 1510 1514 1517 1520 1523 1526 1528 1530 1532 1534 1536 1537 1539 1540 1541 1542 1543 1543 1544 1544 1544 1544 1544 1544 1544 1544 1544 1544 1544 1543 1543 1542 1542 1541 1540 1540 1539 1538 1538
1493 1496 1500 1503 1506 1510 1514 1517 1520 1522 1525 1527 1529 1531 1533 1534 1536 1537 1538 1539 1540 1541 1541 1541 1542 1542 1542 1542 1542 1542 1542 1542 1542 1541 1541 1540 1540 1539 1538 1538 1537 1537 1536
1489 1492 1495 1498 1502 1505 1509 1513 1515 1518 1521 1523 1526 1528 1529 1531 1532 1534 1535 1536 1536 1537 1538 1539 1539 1539 1540 1539 1539 1539 1539 1540 1540 1539 1539 1538 1538 1537 1536 1536 1535 1535 1534
1484 1487 1490 1493 1497 1500 1504 1508 1511 1514 1517 1520 1522 1524 1526 1527 1528 1529 1531 1532 1533 1534 1534 1535 1536 1536 1537 1537 1537 1537 1537 1537 1537 1537 1536 1536 1536 1535 1534 1534 1533 1532 1532
1479 1482 1485 1488 1492 1495 1499 1503 1506 1510 1512 1515 1518 1520 1521 1523 1524 1525 1526 1527 1528 1530 1530 1531 1532 1533 1533 1534 1534 1534 1534 1534 1534 1534 1534 1533 1533 1533 1532 1531 1531 1530 1529
1474 1476 1480 1483 1486 1490 1493 1497 1500 1504 1507 1510 1513 1515 1517 1519 1518 1520 1521 1522 1524 1525 1526 1527 1528 1529 1529 1530 1530 1531 1531 1531 1531 1531 1531 1530 1530 1530 1529 1529 1528 1527 1526
1469 1472 1475 1477 1481 1484 1487 1491 1494 1498 1501 1505 1507 1510 1511 1511 1513 1514 1515 1517 1518 1520 1521 1522 1523 1524 1525 1526 1526 1527 1527 1527 1528 1527 1527 1527 1527 1526 1526 1525 1524 1524 1523
1463 1466 1469 1472 1475 1478 1481 1485 1489 1492 1496 1498 1501 1504 1506 1506 1508 1508 1510 1511 1513 1514 1516 1517 1518 1519 1520 1521 1522 1522 1523 1523 1523 1524 1524 1523 1523 1523 1522 1521 1521 1520 1519
1457 1460 1463 1466 1469 1472 1475 1479 1482 1486 1489 1492 1495 1497 1499 1501 1502 1503 1503 1505 1507 1508 1510 1512 1513 1514 1515 1516 1517 1518 1518 1519 1519 1519 1519 1519 1519 1519 1518 1518 1517 1516 1515
1452 1454 1457 1460 1463 1466 1469 1472 1476 1479 1482 1486 1488 1490 1492 1494 1495 1496 1498 1498 1500 1502 1503 1505 1507 1508 1509 1510 1511 1512 1513 1514 1514 1515 1515 1514 1514 1514 1514 1513 1513 1512 1511
1447 1449 1451 1454 1457 1460 1463 1466 1469 1472 1475 1478 1481 1483 1485 1487 1489 1491 1492 1493 1494 1495 1497 1498 1500 1501 1502 1504 1505 1507 1508 1508 1509 1510 1510 1510 1510 1510 1509 1509 1509 1508 1507
1444 1445 1447 1449 1451 1454 1457 1460 1463 1466 1469 1471 1474 1476 1478 1480 1483 1484 1486 1488 1488 1488 1489 1490 1492 1494 1495 1496 1498 1500 1502 1503 1504 1504 1505 1505 1505 1505 1505 1504 1504 1503 1503
1441 1442 1443 1445 1447 1449 1451 1454 1457 1460 1462 1465 1467 1470 1472 1474 1476 1478 1479 1481 1483 1481 1481 1483 1485 1486 1488 1489 1491 1493 1495 1497 1498 1499 1500 1500 1500 1500 1500 1500 1499 1499 1498
1440 1440 1440 1441 1442 1444 1446 1449 1452 1454 1456 1458 1460 1463 1465 1466 1468 1470 1471 1473 1474 1475 1474 1475 1477 1479 1481 1482 1484 1487 1489 1490 1492 1493 1494 1495 1495 1495 1495 1495 1495 1494 1494
1439 1439 1439 1439 1439 1440 1442 1444 1446 1448 1450 1452 1453 1455 1457 1459 1460 1462 1464 1465 1466 1467 1467 1468 1470 1472 1474 1475 1477 1480 1482 1484 1486 1487 1488 1489 1489 1490 1490 1490 1490 1490 1490
1439 1438 1438 1437 1437 1437 1438 1439 1441 1443 1444 1446 1447 1448 1450 1451 1452 1454 1455 1456 1457 1459 1460 1461 1462 1464 1466 1469 1471 1473 1476 1478 1480 1481 1482 1483 1484 1485 1485 1486 1486 1486 1486
1439 1437 1437 1436 1435 1434 1434 1435 1436 1437 1438 1439 1440 1441 1442 1443 1444 1445 1447 1448 1449 1451 1452 1453 1454 1457 1459 1461 1463 1466 1469 1471 1473 1475 1477 1478 1479 1480 1481 1481 1481 1481 1481
1438 1437 1436 1435 1434 1433 1431 1431 1431 1431 1432 1432 1433 1434 1435 1435 1436 1438 1438 1440 1441 1442 1444 1445 1446 1448 1451 1453 1456 1458 1461 1464 1467 1469 1470 1472 1473 1474 1475 1476 1477 1477 1477
1438 1437 1435 1434 1432 1430 1428 1427 1426 1426 1426 1426 1426 1426 1427 1427 1428 1430 1430 1431 1433 1434 1435 1437 1438 1440 1443 1445 1448 1451 1454 1457 1459 1462 1463 1465 1467 1468 1470 1471 1472 1473 1473
1437 1435 1433 1431 1429 1427 1426 1424 1422 1421 1420 1420 1419 1419 1419 1420 1421 1421 1422 1423 1425 1425 1427 1429 1430 1432 1434 1437 1441 1443 1446 1449 1452 1455 1457 1459 1461 1462 1464 1466 1467 1468 1469
1435 1433 1430 1428 1426 1424 1423 1421 1419 1417 1415 1414 1413 1412 1412 1412 1413 1414 1414 1415 1416 1417 1420 1421 1422 1424 1427 1430 1433 1436 1438 1441 1444 1448 1450 1452 1454 1456 1458 1460 1462 1463 1465
1432 1429 1427 1425 1422 1420 1418 1416 1414 1412 1410 1409 1407 1406 1405 1405 1405 1406 1407 1407 1407 1409 1411 1413 1415 1418 1421 1423 1426 1429 1431 1435 1438 1441 1444 1445 1447 1450 1453 1455 1457 1458 1460
1428 1425 1423 1420 1418 1415 1413 1411 1408 1406 1404 1403 1402 1400 1400 1399 1399 1399 1399 1399 1400 1402 1404 1405 1407 1409 1412 1415 1418 1421 1423 1427 1429 1432 1436 1439 1441 1444 1447 1449 1451 1453 1456
1423 1421 1418 1416 1413 1410 1408 1406 1403 1401 1398 1396 1395 1394 1394 1393 1393 1392 1392 1392 1393 1394 1396 1397 1399 1401 1404 1407 1409 1412 1415 1419 1421 1425 1428 1432 1434 1438 1441 1443 1445 1448 1451